GW1261 Weather Reports


Display with metric or nautical units.
time (UTC)temp
F
wind
direction
speed
MPH
gust
MPH
rain 1hr
in
rain 24hr
in
rain mn
in
humidity
%
barometer
mb
20260904154727 72 223 0.0 0.0 0.00 0.59 0.59 99 977.1
20260904154222 72 224 0.0 0.0 0.00 0.59 0.59 99 976.9
20260904153717 72 224 0.0 0.0 0.00 0.59 0.59 99 977.1
20260904153213 72 223 0.0 0.0 0.00 0.59 0.59 99 977.0
20260904152709 72 222 0.0 0.0 0.00 0.59 0.59 99 977.0
20260904152204 72 221 0.0 0.0 0.00 0.59 0.59 99 976.8
20260904151659 72 221 0.0 0.0 0.00 0.59 0.59 99 977.0
20260904151158 72 221 0.0 0.0 0.00 0.59 0.59 99 977.0
20260904150654 72 221 0.0 0.0 0.00 0.59 0.59 99 977.0
20260904150149 72 221 0.0 0.0 0.00 0.59 0.59 99 976.8
20260904145648 72 221 0.0 0.0 0.00 0.32 0.32 99 976.8
20260904145143 72 221 0.0 0.0 0.00 0.32 0.32 99 976.6
20260904144638 72 221 0.0 0.0 0.00 0.32 0.32 99 976.5
20260904144134 72 221 0.0 0.0 0.00 0.32 0.32 99 976.7
20260904143630 72 221 0.0 0.0 0.00 0.32 0.32 99 976.7
20260904143126 72 221 0.0 0.0 0.00 0.32 0.32 99 976.6
20260904142623 72 222 0.0 0.0 0.00 0.32 0.32 99 976.8
20260904142118 72 222 0.0 0.0 0.00 0.32 0.32 99 976.4
20260904141613 72 221 0.0 0.0 0.00 0.32 0.32 99 976.4
20260904141108 72 221 0.0 0.0 0.00 0.32 0.32 99 976.4
20260904140603 72 233 0.0 0.0 0.00 0.32 0.32 99 976.4
20260904140058 72 233 0.0 0.0 0.00 0.32 0.32 99 976.4
20260904135557 72 233 0.0 0.0 0.00 0.32 0.32 99 976.3
20260904135053 72 233 0.0 0.0 0.00 0.32 0.32 99 976.4
20260904134548 72 233 0.0 0.0 0.00 0.32 0.32 99 976.2
20260904134037 72 233 0.0 0.0 0.00 0.32 0.32 99 976.0
20260904133531 73 233 0.0 0.0 0.00 0.32 0.32 99 976.0
20260904133027 73 233 0.0 0.0 0.00 0.32 0.32 99 975.9
20260904132522 73 233 0.0 0.0 0.00 0.32 0.32 99 975.9
20260904132021 72 233 0.0 0.0 0.00 0.32 0.32 99 975.7
20260904131516 72 233 0.0 0.0 0.00 0.32 0.32 99 976.0
20260904131012 72 233 0.0 0.0 0.00 0.32 0.32 99 975.9
20260904130511 73 233 0.0 0.0 0.00 0.32 0.32 99 975.8
20260904130006 73 236 0.0 0.0 0.00 0.32 0.32 99 975.8
20260904125502 73 231 0.0 0.0 0.00 0.32 0.32 99 975.9
20260904124956 73 215 0.0 0.0 0.00 0.32 0.32 99 976.0
20260904124452 73 230 0.0 0.0 0.00 0.32 0.32 99 975.9
20260904123948 73 232 0.0 0.0 0.00 0.32 0.32 99 975.9
20260904123442 73 236 0.0 0.0 0.00 0.32 0.32 99 975.6
20260904122938 73 231 0.0 0.0 0.00 0.32 0.32 99 975.8
20260904122437 73 232 0.0 0.0 0.00 0.32 0.32 99 975.8
20260904121932 73 229 0.0 0.0 0.00 0.32 0.32 99 975.9
20260904121428 73 246 0.0 0.0 0.00 0.32 0.32 99 976.3
20260904120925 74 341 0.0 0.0 0.00 0.32 0.32 99 976.3
20260904120420 74 343 0.0 0.0 0.00 0.32 0.32 99 976.4
20260904115915 75 343 0.0 0.0 0.00 0.32 0.32 99 975.9
20260904115410 75 213 0.0 0.0 0.00 0.32 0.32 99 975.5
20260904114905 75 213 0.0 0.0 0.00 0.32 0.32 99 974.9
20260904114404 75 175 0.0 0.0 0.00 0.32 0.32 99 974.6
20260904113900 76 212 0.0 0.0 0.00 0.32 0.32 99 974.6
20260904113400 76 212 0.0 0.0 0.00 0.32 0.32 99 974.7
20260904112854 76 211 0.0 0.0 0.00 0.32 0.32 99 975.1
20260904112350 76 208 0.0 0.0 0.00 0.32 0.32 99 974.8
20260904111846 76 182 0.0 0.0 0.00 0.32 0.32 99 974.6
20260904111341 78 208 0.0 0.0 0.00 0.32 0.32 99 974.6
20260904110837 77 171 0.0 0.0 0.00 0.32 0.32 99 974.2
20260904110335 77 186 0.0 0.0 0.00 0.32 0.32 99 974.2
20260904105830 78 187 0.0 0.0 0.00 0.00 0.00 99 974.0
20260904105325 78 187 0.0 0.0 0.00 0.00 0.00 99 973.9
20260904104820 78 186 0.0 0.0 0.00 0.00 0.00 99 973.8
20260904104315 77 172 0.0 0.0 0.00 0.00 0.00 99 973.8
20260904103812 77 170 0.0 0.0 0.00 0.00 0.00 99 973.6
20260904103312 78 164 0.0 0.0 0.00 0.00 0.00 99 973.6
20260904102808 78 175 0.0 0.0 0.00 0.00 0.00 99 973.8
20260904102306 78 170 0.0 0.0 0.00 0.00 0.00 99 973.5
20260904101759 78 175 0.0 0.0 0.00 0.00 0.00 99 973.3
20260904101255 78 175 0.0 0.0 0.00 0.00 0.00 99 973.2
20260904100751 78 170 0.0 0.0 0.00 0.00 0.00 99 973.4
20260904100247 78 153 0.0 0.0 0.00 0.00 0.00 99 973.3
20260904095746 78 210 0.0 0.0 0.00 0.00 0.00 99 973.2
20260904095241 78 210 0.0 0.0 0.00 0.00 0.00 99 972.9
20260904094736 78 210 0.0 0.0 0.00 0.00 0.00 99 973.0
20260904094231 78 210 0.0 0.0 0.00 0.00 0.00 99 973.1
20260904093727 78 186 0.0 0.0 0.00 0.00 0.00 99 973.1
20260904093226 78 185 0.0 0.0 0.00 0.00 0.00 99 973.2
20260904092717 78 184 0.0 0.0 0.00 0.00 0.00 99 972.8
20260904092213 78 201 0.0 0.0 0.00 0.00 0.00 99 972.6
20260904091709 78 195 0.0 0.0 0.00 0.00 0.00 99 972.8
20260904091203 78 180 0.0 0.0 0.00 0.00 0.00 99 972.7
20260904090659 77 204 0.0 0.0 0.00 0.00 0.00 99 972.7
20260904090154 77 189 0.0 0.0 0.00 0.00 0.00 99 972.7
20260904085650 77 189 0.0 0.0 0.00 0.00 0.00 99 972.8
20260904085149 77 180 0.0 0.0 0.00 0.00 0.00 99 972.9
20260904084639 77 189 0.0 0.0 0.00 0.00 0.00 99 973.0
20260904084136 78 211 0.0 0.0 0.00 0.00 0.00 99 973.0
20260904083632 78 212 0.0 0.0 0.00 0.00 0.00 99 973.1
20260904083127 77 212 0.0 0.0 0.00 0.00 0.00 99 973.2
20260904082622 77 211 0.0 0.0 0.00 0.00 0.00 99 973.1
20260904082118 77 202 0.0 0.0 0.00 0.00 0.00 99 973.4
20260904081613 76 205 0.0 0.0 0.00 0.00 0.00 99 973.4
20260904081108 76 212 0.0 0.0 0.00 0.00 0.00 99 973.4
20260904080604 75 212 0.0 0.0 0.00 0.00 0.00 99 973.6
20260904080100 75 201 0.0 0.0 0.00 0.00 0.00 99 973.6
20260904075555 75 186 0.0 0.0 0.00 0.00 0.00 99 973.7
20260904075050 75 159 0.0 0.0 0.00 0.00 0.00 99 973.4
20260904074549 75 214 0.0 0.0 0.00 0.00 0.00 99 973.5
20260904074044 74 214 0.0 0.0 0.00 0.00 0.00 99 973.6
20260904073539 75 214 0.0 0.0 0.00 0.00 0.00 99 973.6
20260904073035 74 214 0.0 0.0 0.00 0.00 0.00 99 973.7
20260904072531 75 219 0.0 0.0 0.00 0.00 0.00 99 973.6
20260904072026 74 214 0.0 0.0 0.00 0.00 0.00 99 973.6
20260904071522 74 216 0.0 0.0 0.00 0.00 0.00 99 974.0
20260904071016 74 219 0.0 0.0 0.00 0.00 0.00 99 974.3
20260904070515 74 216 0.0 0.0 0.00 0.00 0.00 99 974.2
20260904070010 74 219 0.0 0.0 0.00 0.00 0.00 99 974.4
20260904065505 74 214 0.0 0.0 0.00 0.00 0.00 99 974.5
20260904065001 75 214 0.0 0.0 0.00 0.00 0.00 99 974.4
20260904064456 74 218 0.0 0.0 0.00 0.00 0.00 99 974.7
20260904063951 74 215 0.0 0.0 0.00 0.00 0.00 99 974.8
20260904063448 75 206 0.0 0.0 0.00 0.00 0.00 99 974.5
20260904062943 76 185 0.0 0.0 0.00 0.00 0.00 99 974.7
20260904062439 76 154 0.0 0.0 0.00 0.00 0.00 99 974.4
20260904061934 76 153 0.0 1.0 0.00 0.00 0.00 99 974.1
20260904061431 76 60 1.0 2.0 0.00 0.00 0.00 99 974.3
20260904060926 77 67 2.0 3.0 0.00 0.00 0.00 99 974.3
20260904060422 77 74 1.0 2.0 0.00 0.00 0.00 99 974.5
20260904055917 78 61 2.0 2.0 0.00 0.00 0.00 99 974.7
20260904055413 79 174 0.0 0.0 0.00 0.00 0.00 99 974.7
20260904054909 79 173 0.0 0.0 0.00 0.00 0.00 99 974.8
20260904054404 80 173 0.0 0.0 0.00 0.00 0.00 99 974.7
20260904053900 80 173 0.0 0.0 0.00 0.00 0.00 99 974.6
20260904053358 79 169 0.0 0.0 0.00 0.00 0.00 99 974.7
20260904052855 79 169 0.0 0.0 0.00 0.00 0.00 99 974.7
20260904052351 79 171 0.0 0.0 0.00 0.00 0.00 99 975.3
20260904051847 80 164 0.0 0.0 0.00 0.00 0.00 99 974.9
20260904051343 80 173 0.0 0.0 0.00 0.00 0.00 99 974.9
20260904050837 79 173 0.0 0.0 0.00 0.00 0.00 99 975.0
20260904050334 79 173 0.0 0.0 0.00 0.00 0.00 99 975.2
20260904045833 80 173 0.0 0.0 0.00 0.00 0.00 99 975.2
20260904045328 80 173 0.0 0.0 0.00 0.00 0.00 99 975.4
20260904044823 80 172 0.0 0.0 0.00 0.00 0.00 99 975.4
20260904044320 80 173 0.0 0.0 0.00 0.00 0.00 99 975.7
20260904043815 80 173 0.0 0.0 0.00 0.00 0.00 99 975.6
20260904043312 80 173 0.0 0.0 0.00 0.00 0.00 99 975.6
20260904042806 80 170 0.0 0.0 0.00 0.00 0.00 99 975.8
20260904042306 79 173 0.0 0.0 0.00 0.00 0.00 99 975.8
20260904041802 78 174 0.0 0.0 0.00 0.00 0.00 99 975.8
20260904041259 79 174 0.0 0.0 0.00 0.00 0.00 99 976.0
20260904040754 79 172 0.0 0.0 0.00 0.00 0.00 99 976.1
20260904040249 78 174 0.0 0.0 0.00 0.00 0.00 99 975.8
20260904035746 79 174 0.0 0.0 0.00 0.00 0.00 99 976.1
20260904035241 78 174 0.0 0.0 0.00 0.00 0.00 99 976.2
20260904034740 78 174 0.0 0.0 0.00 0.00 0.00 99 976.2
20260904034236 78 174 0.0 0.0 0.00 0.00 0.00 99 976.2
20260904033731 78 174 0.0 0.0 0.00 0.00 0.00 99 976.0
20260904033228 78 174 0.0 0.0 0.00 0.00 0.00 99 976.3
20260904032724 78 174 0.0 0.0 0.00 0.00 0.00 99 976.4
20260904032222 78 171 0.0 0.0 0.00 0.00 0.00 99 976.2
20260904031717 79 174 0.0 0.0 0.00 0.00 0.00 99 976.5
20260904031213 78 174 0.0 0.0 0.00 0.00 0.00 99 976.4
20260904030709 78 174 0.0 0.0 0.00 0.00 0.00 99 976.4
20260904030204 78 174 0.0 0.0 0.00 0.00 0.00 99 976.4
20260904025700 78 173 0.0 0.0 0.00 0.00 0.00 99 976.4
20260904025154 77 173 0.0 0.0 0.00 0.00 0.00 99 976.5
20260904024650 77 171 0.0 0.0 0.00 0.00 0.00 99 976.6
20260904024146 78 172 0.0 0.0 0.00 0.00 0.00 99 976.6
20260904023642 78 173 0.0 0.0 0.00 0.00 0.00 99 976.8
20260904023137 78 169 0.0 0.0 0.00 0.00 0.00 99 976.8
20260904022631 78 174 0.0 0.0 0.00 0.00 0.00 99 976.7
20260904022128 78 169 0.0 0.0 0.00 0.00 0.00 99 976.7
20260904021623 78 173 0.0 0.0 0.00 0.00 0.00 99 976.7
20260904014058 78 174 0.0 0.0 0.00 0.00 0.00 99 976.5
20260904013554 78 174 0.0 0.0 0.00 0.00 0.00 99 976.5
20260904013050 77 174 0.0 0.0 0.00 0.00 0.00 99 976.4
20260904012550 77 173 0.0 0.0 0.00 0.00 0.00 99 976.6
20260904012044 77 174 0.0 0.0 0.00 0.00 0.00 99 976.4
20260904011543 77 174 0.0 0.0 0.00 0.00 0.00 99 976.4
20260904011039 77 174 0.0 0.0 0.00 0.00 0.00 99 976.4
20260904010535 77 174 0.0 0.0 0.00 0.00 0.00 99 976.2
20260904010031 77 174 0.0 0.0 0.00 0.00 0.00 99 976.2
20260904005526 77 174 0.0 0.0 0.00 0.00 0.00 99 976.0
20260904005021 77 173 0.0 0.0 0.00 0.00 0.00 99 976.1
20260904004516 77 173 0.0 0.0 0.00 0.00 0.00 99 975.9
20260904004011 76 174 0.0 0.0 0.00 0.00 0.00 99 975.8
20260904003507 76 174 0.0 0.0 0.00 0.00 0.00 99 975.8
20260904003002 76 174 0.0 0.0 0.00 0.00 0.00 99 975.7
20260904002458 76 174 0.0 0.0 0.00 0.00 0.00 99 975.6
20260904001956 76 175 0.0 0.0 0.00 0.00 0.00 99 975.5
20260904001453 76 175 0.0 0.0 0.00 0.00 0.00 99 975.6
20260904000946 76 175 0.0 0.0 0.00 0.00 0.00 99 975.3
20260904000447 76 175 0.0 0.0 0.00 0.00 0.00 99 975.3
20260903235942 76 175 0.0 0.0 0.00 0.00 0.00 99 975.2
20260903235437 76 175 0.0 0.0 0.00 0.00 0.00 99 975.1
20260903234932 76 175 0.0 0.0 0.00 0.00 0.00 99 975.1
20260903234428 76 175 0.0 0.0 0.00 0.00 0.00 99 975.0
20260903233924 76 175 0.0 0.0 0.00 0.00 0.00 99 974.9
20260903233419 76 175 0.0 0.0 0.00 0.00 0.00 99 975.0
20260903232914 76 175 0.0 0.0 0.00 0.00 0.00 99 975.0
20260903232409 76 175 0.0 0.0 0.00 0.00 0.00 99 974.8
20260903231909 76 175 0.0 0.0 0.00 0.00 0.00 99 974.9
20260903231403 76 175 0.0 0.0 0.00 0.00 0.00 99 974.7
20260903230859 76 175 0.0 0.0 0.00 0.00 0.00 99 974.5
20260903230354 76 175 0.0 0.0 0.00 0.00 0.00 99 974.7
20260903225850 76 175 0.0 0.0 0.00 0.00 0.00 99 974.9
20260903225346 76 174 0.0 0.0 0.00 0.00 0.00 99 974.7
20260903224842 76 174 0.0 0.0 0.00 0.00 0.00 99 974.7
20260903224338 76 174 0.0 0.0 0.00 0.00 0.00 99 974.7
20260903223834 76 174 0.0 0.0 0.00 0.00 0.00 99 974.6
20260903223332 76 174 0.0 0.0 0.00 0.00 0.00 99 974.8
20260903222827 76 174 0.0 0.0 0.00 0.00 0.00 99 974.6
20260903222327 76 174 0.0 0.0 0.00 0.00 0.00 99 974.4
20260903221821 76 174 0.0 0.0 0.00 0.00 0.00 99 974.6
20260903221320 76 174 0.0 0.0 0.00 0.00 0.00 99 974.5
20260903220818 76 174 0.0 0.0 0.00 0.00 0.00 99 974.5
20260903220312 76 174 0.0 0.0 0.00 0.00 0.00 99 974.2
20260903215805 76 174 0.0 0.0 0.00 0.00 0.00 99 974.2
20260903215305 76 174 0.0 0.0 0.00 0.00 0.00 99 974.5
20260903214800 76 174 0.0 0.0 0.00 0.00 0.00 99 974.2
20260903214255 76 174 0.0 0.0 0.00 0.00 0.00 99 974.2
20260903213750 76 174 0.0 0.0 0.00 0.00 0.00 99 974.1
20260903213245 76 174 0.0 0.0 0.00 0.00 0.00 99 974.1
20260903212736 76 174 0.0 0.0 0.00 0.00 0.00 99 973.9
20260903212233 76 174 0.0 0.0 0.00 0.00 0.00 99 974.1
20260903211731 76 174 0.0 0.0 0.00 0.00 0.00 99 973.9
20260903211228 76 174 0.0 0.0 0.00 0.00 0.00 99 973.9
20260903210723 76 174 0.0 0.0 0.00 0.00 0.00 99 974.1
20260903210219 76 174 0.0 0.0 0.00 0.00 0.00 99 974.1
20260903205713 76 171 0.0 0.0 0.00 0.00 0.00 99 974.1
20260903205212 76 171 0.0 0.0 0.00 0.00 0.00 99 974.1
20260903204708 76 171 0.0 0.0 0.00 0.00 0.00 99 974.0
20260903204204 76 171 0.0 0.0 0.00 0.00 0.00 99 973.6
20260903203659 76 175 0.0 0.0 0.00 0.00 0.00 99 974.0
20260903203154 76 175 0.0 0.0 0.00 0.00 0.00 99 973.8
20260903202648 76 175 0.0 0.0 0.00 0.00 0.00 99 974.1
20260903202144 76 175 0.0 0.0 0.00 0.00 0.00 99 974.0
20260903201638 76 175 0.0 0.0 0.00 0.00 0.00 99 973.9
20260903201138 76 174 0.0 0.0 0.00 0.00 0.00 99 973.8
20260903200633 76 153 0.0 0.0 0.00 0.00 0.00 99 973.9
20260903200128 76 174 0.0 0.0 0.00 0.00 0.00 99 973.8
20260903195624 76 175 0.0 0.0 0.00 0.00 0.00 99 974.1
20260903195120 76 173 0.0 0.0 0.00 0.00 0.00 99 974.0
20260903194614 76 178 0.0 0.0 0.00 0.00 0.00 99 973.8
20260903194114 76 178 0.0 0.0 0.00 0.00 0.00 99 973.9
20260903193610 76 178 0.0 0.0 0.00 0.00 0.00 99 974.1
20260903193106 76 178 0.0 0.0 0.00 0.00 0.00 99 974.0
20260903192602 76 178 0.0 0.0 0.00 0.00 0.00 99 974.0
20260903192057 76 178 0.0 0.0 0.00 0.00 0.00 99 973.9
20260903191554 76 178 0.0 0.0 0.00 0.00 0.00 99 973.9
20260903191048 76 178 0.0 0.0 0.00 0.00 0.00 99 974.0
20260903190542 77 178 0.0 0.0 0.00 0.00 0.00 99 974.0
20260903190042 77 178 0.0 0.0 0.00 0.00 0.00 99 974.0
20260903185537 77 178 0.0 0.0 0.00 0.00 0.00 99 974.1
20260903185032 76 178 0.0 0.0 0.00 0.00 0.00 99 974.1
20260903184529 77 178 0.0 0.0 0.00 0.00 0.00 99 974.1
20260903184023 77 178 0.0 0.0 0.00 0.00 0.00 99 974.1
20260903183522 77 178 0.0 0.0 0.00 0.00 0.00 99 974.0
20260903183017 77 178 0.0 0.0 0.00 0.00 0.00 99 974.3
20260903182516 77 178 0.0 0.0 0.00 0.00 0.00 99 974.3
20260903182013 77 178 0.0 0.0 0.00 0.00 0.00 99 974.3
20260903181506 77 178 0.0 0.0 0.00 0.00 0.00 99 974.3
20260903181006 76 178 0.0 0.0 0.00 0.00 0.00 99 974.4
20260903180501 76 178 0.0 0.0 0.00 0.00 0.00 99 974.6
20260903175959 76 178 0.0 0.0 0.00 0.00 0.00 99 974.5
20260903175454 76 175 0.0 0.0 0.00 0.00 0.00 99 974.2
20260903174953 76 176 0.0 0.0 0.00 0.00 0.00 99 974.1
20260903174449 76 176 0.0 0.0 0.00 0.00 0.00 99 974.3
20260903173948 76 177 0.0 0.0 0.00 0.00 0.00 99 974.3
20260903173443 76 178 0.0 0.0 0.00 0.00 0.00 99 974.5
20260903172939 76 178 0.0 0.0 0.00 0.00 0.00 99 974.5
20260903172434 76 178 0.0 0.0 0.00 0.00 0.00 99 974.7
20260903171930 76 178 0.0 0.0 0.00 0.00 0.00 99 974.8
20260903171425 76 178 0.0 0.0 0.00 0.00 0.00 99 974.7
20260903170924 76 178 0.0 0.0 0.00 0.00 0.00 99 974.6
20260903170419 76 178 0.0 0.0 0.00 0.00 0.00 99 974.9
20260903165918 76 178 0.0 0.0 0.00 0.28 0.28 99 974.8
20260903165413 76 178 0.0 0.0 0.00 0.28 0.28 99 975.0
20260903164907 76 178 0.0 0.0 0.00 0.28 0.28 99 974.8
20260903164402 76 178 0.0 0.0 0.00 0.28 0.28 99 974.8
20260903163902 76 178 0.0 0.0 0.00 0.28 0.28 99 974.7
20260903163358 76 178 0.0 0.0 0.00 0.28 0.28 99 975.0
20260903162854 76 178 0.0 0.0 0.00 0.28 0.28 99 975.1
20260903162350 76 178 0.0 0.0 0.00 0.28 0.28 99 975.0
20260903161846 76 178 0.0 0.0 0.00 0.28 0.28 99 975.0
20260903161341 76 178 0.0 0.0 0.00 0.28 0.28 99 975.1
20260903160837 76 178 0.0 0.0 0.00 0.28 0.28 99 975.1
20260903160335 76 178 0.0 0.0 0.00 0.28 0.28 99 975.0
20260903155834 76 178 0.0 0.0 0.00 0.28 0.28 99 975.0
20260903155330 76 178 0.0 0.0 0.00 0.28 0.28 99 974.9
20260903154825 76 178 0.0 0.0 0.00 0.28 0.28 99 974.8